Regional Weather Roundup
Issued by NWS Little Rock, AR

Home | Current Version | Previous Version | Text Only | Print | Product List | Glossary On
Versions: 1 2 3 4 5 6 7 8 9 10 11 12 13 14 15 16 17 18 19 20 21 22 23 24 25 26 27 28 29 30 31 32 33 34
000
ASUS44 KLZK 041305
RWRLZK

WEATHER ROUNDUP FOR ARKANSAS
NATIONAL WEATHER SERVICE LITTLE ROCK AR
700 AM CST SUN DEC 04 2016

NOTE: "FAIR" INDICATES FEW OR NO CLOUDS BELOW 12,000 FEET WITH NO
SIGNIFICANT WEATHER AND/OR OBSTRUCTIONS TO VISIBILITY.

ARZ001-003-010-029-041400-
NORTHWEST ARKANSAS

CITY           SKY/WX    TMP DP  RH WIND       PRES   REMARKS
FAYETTEVILLE   LGT RAIN  41  41 100 W6        30.00R FOG
FORT SMITH     LGT RAIN  43  41  93 NE3       30.04R FOG
HARRISON       CLOUDY    38  38 100 SE5       30.00R FOG
BENTONVILLE    CLOUDY    41  36  81 CALM      30.01R
ROGERS         LGT RAIN  40  39  97 CALM      30.01R
SILOAM SPGS    CLOUDY    43  39  87 SW3       30.00R
HIGHFILL       LGT RAIN  42  40  92 CALM      30.00R FOG
SPRINGDALE     CLOUDY    41  41 100 CALM      30.02R FOG
$$

ARZ004-005-016-041400-
NORTH CENTRAL ARKANSAS

CITY           SKY/WX    TMP DP  RH WIND       PRES   REMARKS
BATESVILLE     CLOUDY    39  37  93 E6        30.02R
FLIPPIN        CLOUDY    39  36  87 S3        30.00R
MTN HOME       CLOUDY    38  38 100 S3        30.00R FOG
$$

ARZ040-041-041400-
WEST CENTRAL ARKANSAS

CITY           SKY/WX    TMP DP  RH WIND       PRES   REMARKS
MENA           CLOUDY    45  45 100 CALM      30.00R
MOUNT IDA      CLOUDY    43  42  97 CALM      29.98R FOG
$$

ARZ009-017-025-026-028-041400-
NORTHEAST ARKANSAS

CITY           SKY/WX    TMP DP  RH WIND       PRES   REMARKS
CORNING        CLOUDY    39  39 100 NE9       30.02S FOG
JONESBORO      CLOUDY    41  39  93 E9        30.00F
NEWPORT        CLOUDY    41  40  96 E9        30.01F
WALNUT RIDGE   CLOUDY    39  36  87 NE9       30.00S
BLYTHEVILLE    CLOUDY    43  40  89 E7        30.02R
$$

ARZ022-023-033-042-044-041400-
CENTRAL ARKANSAS

CITY           SKY/WX    TMP DP  RH WIND       PRES   REMARKS
LITTLE ROCK    DRIZZLE   42  42 100 N7        30.00R FOG
N LITTLE ROCK    N/A     41  40  97 E5        30.02R
JACKSONVILLE   CLOUDY    42  42  99 NE3       29.99R FOG
SEARCY         CLOUDY    42  41  96 NE8       30.02R
HOT SPRINGS    CLOUDY    43  43 100 CALM      29.99S FOG
RUSSELLVILLE   CLOUDY    42  40  92 E3        30.01R
CLINTON        CLOUDY    41  41 100 CALM      30.02R FOG
$$

ARZ036-041400-
EAST ARKANSAS

CITY           SKY/WX    TMP DP  RH WIND       PRES   REMARKS
WEST MEMPHIS   CLOUDY    43  42  97 E3        29.99R FOG
$$

ARZ050-053-066-070-073-041400-
SOUTHWEST ARKANSAS

CITY           SKY/WX    TMP DP  RH WIND       PRES   REMARKS
ARKADELPHIA    CLOUDY    45  44  97 N5        30.02R
CAMDEN         CLOUDY    45  43  93 NW3       29.99R FOG
TEXARKANA      CLOUDY    46  45  96 N6        29.99R FOG
EL DORADO      CLOUDY    46  45  96 N3        29.97R
DE QUEEN       CLOUDY    46  46 100 CALM      29.99R
$$

ARZ056-057-069-041400-
SOUTHEAST ARKANSAS

CITY           SKY/WX    TMP DP  RH WIND       PRES   REMARKS
PINE BLUFF     CLOUDY    45  44  97 NE6       29.97S FOG
STUTTGART      CLOUDY    45  39  81 NE8       29.98R
MONTICELLO     CLOUDY    46  44  93 E5        29.96R

$$






USA.gov is the U.S. government's official web portal to all federal, state and local government web resources and services.